Miscellaneous Local Product
Issued by NWS Hastings, NE

Home | Current Version | Previous Version | Graphics & Text | Print | Product List | Glossary On
Versions: 1 2 3 4 5 6 7 8 9 10 11 12 13 14 15 16 17 18 19 20 21 22 23 24 25 26 27 28 29 30 31 32 33 34 35 36 37 38 39 40 41 42 43 44 45 46 47 48 49 50
381
AXUS43 KGID 271102
MISGRI

GID CWA HOURLY WEATHER ROUNDUP
NATIONAL WEATHER SERVICE HASTINGS NE
600 AM CDT TUE JUN 27 2017

NOTE: "FAIR" INDICATES FEW OR NO CLOUDS BELOW 12,000 FEET WITH NO
SIGNIFICANT WEATHER AND/OR OBSTRUCTIONS TO VISIBILITY.

...SOUTH CENTRAL NEBRASKA...

CITY           SKY/WX    TMP DP  RH WIND       PRES   REMARKS
GRAND ISLAND   MOCLDY    57  57 100 S9        30.09F FOG
HASTINGS       CLOUDY    57  56  96 SE8       30.09F FOG
KEARNEY        MOCLDY    57  54  88 SE9       30.07F
ORD            CLOUDY    55  53  93 SE10      30.04F FOG
YORK           FOG       54  54 100 CALM      30.10S VSB<1/4
AURORA         FOG       56  56 100 S8        30.09F VSB 1/2
LEXINGTON      PTCLDY    59  56  92 SE8       30.06S
HOLDREGE       PTCLDY    57  56  94 SE8       30.06F
HEBRON         FOG       55  54  98 CALM      30.10S VSB 3/4

...NEBRASKA PANHANDLE...

CITY           SKY/WX    TMP DP  RH WIND       PRES   REMARKS
CHADRON        CLEAR     64  54  69 S26G40    29.86S
ALLIANCE       CLOUDY    58  53  84 S16G23    29.98F
SCOTTSBLUFF    CLOUDY    63  54  72 SE16G31   29.96F
SIDNEY         CLOUDY    59  56  89 S20G26    30.02F

...WESTERN AND NORTH CENTRAL NEBRASKA...

CITY           SKY/WX    TMP DP  RH WIND       PRES   REMARKS
VALENTINE      CLEAR     59  51  75 S17       29.99F
AINSWORTH      CLEAR     54  52  93 S13G18    30.02S
ONEILL         CLEAR     49  45  85 SE6       30.06F
BROKEN BOW     MOCLDY    57  55  93 SE9       30.05F
IMPERIAL       PTCLDY    60  57  89 SE12      30.03F
NORTH PLATTE   PTCLDY    60  57  89 SE13      30.04F
MCCOOK         PTCLDY    59  59 100 E10       30.03F

...EASTERN NEBRASKA...

CITY           SKY/WX    TMP DP  RH WIND       PRES   REMARKS
NORFOLK        CLEAR     48  43  82 SE9       30.07F
SO SIOUX CITY  CLEAR     46  43  89 E7        30.10F
TEKAMAH        CLEAR     46  42  86 CALM      30.11F
COLUMBUS       MOCLDY    49  47  93 MISG      30.10F
ALBION         PTCLDY    52  46  80 SE5       30.08F
OMAHA EPPLEY   PTCLDY    56  48  74 SE5       30.12S
OFFUTT AFB     CLEAR     49  47  95 E5        30.11S
MILLARD        CLEAR     55  54  94 CALM      30.12S
LINCOLN        FOG       57  57 100 S5        30.11F VSB 1/4
NEBRASKA CITY  FOG       54  54 100 S3        30.12S VSB<1/4
BEATRICE       CLEAR     55  55  99 CALM      30.10F FOG
FALLS CITY     FOG       51  51 100 CALM      30.11S VSB 1/2

...NORTHERN KANSAS...

CITY           SKY/WX    TMP DP  RH WIND       PRES   REMARKS
GOODLAND       MOCLDY    58  58 100 SE8       30.04R
HILL CITY      CLOUDY    61  61 100 E12       30.04F
NORTON         CLOUDY    57  54  88 E12       30.04F
PHILLIPSBURG   MOCLDY    61  61 100 E10       30.06F
SMITH CENTER   CLEAR     57  55  94 E10       30.08R
HAYS           CLOUDY    63  61  93 E14       30.03F
RUSSELL        CLOUDY    63  60  90 E14       30.03F
CONCORDIA      FOG       57  57 100 E8        30.07F VSB 1/2
SALINA         PTCLDY    64  60  87 E7        30.06F
TOPEKA         CLEAR     57  57 100 E3        30.11S



USA.gov is the U.S. government's official web portal to all federal, state and local government web resources and services.